Theta_e
346 346 348 347 348 349 347 346 350 349 352 350 351 350 350 348 348 344 345 343 342 343 341 341 343 342 340 338 338 339 341 342 343 342 342 343 345 347 344 343 343 343 344 345 346 347 346 345 344 343 343 343 342 341 343 343 342 341 341 340 339 339 339 339 338 338 338 338 338 337 338 336 336 335 334 333 333 331 331 332 334 336 336 337 337
347 346 347 347 348 350 349 350 350 350 351 352 352 350 347 345 344 342 340 343 342 343 342 340 338 338 338 338 338 340 342 342 343 342 344 345 349 348 344 342 342 341 340 342 344 347 346 345 344 344 342 342 342 342 342 342 340 341 340 340 340 340 338 337 338 338 338 338 338 338 338 337 337 336 335 334 333 332 331 332 333 335 336 336 336
347 346 348 346 348 348 349 351 350 350 353 352 351 349 347 344 344 344 344 344 342 342 341 339 337 336 339 338 340 342 342 343 344 345 345 345 348 348 344 341 339 338 338 338 340 342 344 344 344 343 343 342 342 342 343 342 342 340 341 340 340 339 339 338 338 338 338 338 338 338 338 338 338 337 336 335 333 333 332 332 332 334 335 335 336
348 348 348 346 347 346 349 350 350 351 352 351 351 349 346 344 347 348 349 346 342 341 341 338 339 337 339 337 340 340 339 341 342 344 346 347 347 349 347 341 338 337 336 336 337 338 340 341 342 342 342 342 342 341 342 342 341 341 340 340 339 339 338 339 339 338 338 338 338 338 337 337 337 337 337 335 334 334 333 332 332 332 334 335 335
349 349 347 345 346 347 349 351 352 353 353 351 348 348 348 346 348 348 344 343 341 340 337 339 337 338 339 336 339 337 340 340 342 344 344 344 343 344 344 345 344 337 336 336 335 337 336 336 337 338 339 340 340 340 341 341 341 341 340 340 339 339 339 339 339 339 338 338 338 338 337 338 337 337 337 337 336 335 334 333 332 332 333 335 335
348 349 348 347 348 348 350 350 351 354 352 351 347 347 347 347 345 343 341 340 338 339 336 336 334 335 337 337 338 341 339 340 340 342 341 341 341 340 338 339 339 341 339 334 333 332 331 330 330 331 333 334 336 338 339 339 339 339 339 339 339 338 339 339 339 339 339 339 339 338 337 338 337 337 337 336 337 336 335 333 332 332 332 333 334
349 349 349 347 348 350 350 350 352 352 349 349 349 349 348 344 342 342 342 339 337 337 336 338 338 336 337 340 337 336 341 339 339 340 339 339 335 332 332 332 333 335 336 338 332 329 327 326 325 325 326 328 330 333 334 335 336 336 335 336 337 337 337 338 338 338 338 338 339 339 338 338 336 337 337 336 335 335 335 334 333 332 332 332 333
349 349 348 350 349 350 350 351 350 351 350 351 350 347 346 343 343 344 340 337 338 337 338 337 338 337 339 339 340 339 339 338 338 336 337 336 333 330 328 327 329 330 332 332 336 330 325 324 323 322 323 323 325 328 329 331 333 333 333 334 335 334 334 335 337 337 337 337 337 337 337 338 337 338 337 337 335 336 336 335 333 333 332 332 332
349 349 351 352 349 350 349 351 351 351 349 348 346 345 345 341 342 342 343 338 336 336 337 336 335 337 339 340 339 339 339 338 337 336 336 333 332 329 327 324 325 326 329 329 332 332 327 322 322 321 320 320 321 323 325 325 329 330 331 331 332 333 333 334 334 334 334 335 336 336 336 336 336 336 336 336 336 336 335 335 334 333 333 332 332
352 352 353 351 350 349 349 349 351 350 347 347 345 344 343 343 340 340 339 338 333 335 332 331 332 336 338 337 337 338 336 337 336 332 331 331 330 328 325 323 322 324 326 327 327 329 326 322 320 320 319 318 318 320 321 322 323 327 329 329 329 330 330 331 332 331 332 333 334 334 333 334 334 335 336 336 336 336 336 335 335 334 333 332 332
352 352 352 349 348 347 347 348 349 346 346 342 341 341 342 341 340 339 340 338 333 334 332 331 334 335 336 335 335 337 337 336 335 330 328 327 325 324 323 320 320 322 325 323 321 323 323 321 318 319 318 317 317 318 318 319 319 323 326 327 327 327 327 328 329 329 329 330 331 331 330 331 332 334 334 335 336 336 336 336 336 335 334 333 332
350 351 351 349 347 347 347 347 345 346 342 341 339 339 339 338 338 337 338 336 333 331 330 332 336 336 334 336 336 335 333 332 332 330 326 323 322 321 318 318 318 320 322 322 319 318 319 320 318 316 317 316 316 316 316 317 317 319 324 324 325 325 325 325 327 327 327 328 328 328 328 329 329 331 333 334 334 335 337 336 335 335 335 334 333
349 349 349 345 345 345 345 344 345 342 341 341 340 339 339 339 336 337 334 333 330 330 330 335 331 332 333 333 334 334 332 331 329 327 323 317 316 318 317 317 318 318 320 320 317 316 316 317 317 317 317 316 317 316 316 315 316 317 321 322 323 324 324 324 325 326 325 325 325 326 325 327 327 328 330 331 331 333 334 336 336 335 335 334 334
348 349 347 346 344 342 342 341 341 340 340 339 339 337 338 337 337 336 332 329 328 328 329 332 324 321 327 328 327 330 333 331 327 325 319 315 317 318 318 317 317 318 318 316 316 315 316 316 317 317 317 317 317 317 318 317 316 316 318 318 319 321 322 322 322 323 324 322 323 323 324 324 325 326 328 328 329 331 333 334 335 335 334 335 335
348 346 344 344 343 342 341 341 340 339 338 336 336 335 335 334 333 332 331 330 327 328 327 327 322 326 324 329 323 323 325 326 327 324 316 315 316 316 316 316 316 317 316 315 314 315 315 316 317 316 316 316 316 316 317 316 315 315 316 316 316 318 320 320 321 322 322 322 322 322 321 322 323 325 325 326 327 329 331 332 332 334 335 334 334
343 342 342 341 342 341 340 339 338 337 336 334 334 333 332 331 331 330 333 327 324 323 326 326 324 324 320 317 318 323 318 313 322 324 320 315 314 315 316 315 315 315 315 313 314 315 315 315 315 316 316 316 316 315 316 315 314 315 315 314 314 316 318 319 319 321 321 321 321 320 319 320 321 322 323 323 325 327 328 329 330 330 331 335 334
340 340 339 339 339 338 337 337 336 337 336 332 331 328 328 328 330 328 330 328 323 324 323 324 323 323 322 322 320 311 309 311 321 317 317 314 314 315 315 315 315 315 314 314 315 315 315 315 316 316 316 315 315 315 316 316 315 316 315 314 313 314 314 315 317 319 320 320 319 319 318 318 319 319 320 321 324 325 326 328 328 328 329 330 333
336 337 336 336 336 336 337 337 335 334 333 331 329 327 326 326 327 327 326 328 326 323 322 322 322 321 320 318 318 312 309 310 314 312 317 315 315 314 315 315 315 315 315 314 314 314 314 314 315 315 315 315 314 315 314 314 315 314 314 312 311 312 312 313 315 317 319 319 319 318 319 318 317 317 318 320 322 323 323 325 326 326 326 328 330
334 335 335 335 335 336 335 334 333 331 330 328 326 326 325 325 325 324 323 325 324 319 322 321 319 320 318 315 314 314 314 312 309 315 312 312 311 312 313 313 314 313 312 312 312 313 314 314 314 314 314 314 313 314 314 314 313 313 313 312 311 310 310 311 312 314 316 318 319 318 319 318 318 317 319 319 320 320 321 322 323 324 324 326 327
332 332 332 333 333 332 332 331 329 328 325 325 325 325 324 324 324 323 322 321 322 318 316 318 315 314 319 316 314 315 314 315 316 313 309 307 306 311 312 312 311 312 312 311 311 311 312 313 312 313 312 312 313 313 314 313 314 313 312 310 310 310 310 310 310 309 311 315 318 318 318 317 318 317 318 318 317 317 318 319 320 321 323 324 325
330 330 329 329 330 330 329 328 326 324 323 323 323 322 322 322 321 320 319 319 319 317 315 314 317 315 314 314 315 313 313 314 314 313 310 309 305 308 308 311 311 310 311 312 312 312 311 311 311 312 312 312 312 312 312 313 313 313 311 309 310 310 310 310 308 307 307 311 314 316 317 317 317 318 318 317 315 315 316 317 318 319 321 322 322
327 327 327 327 327 327 326 325 325 323 322 322 320 320 320 319 319 319 318 317 317 317 315 315 315 315 314 315 314 313 313 312 312 312 311 312 306 305 307 308 307 308 311 310 311 310 310 310 311 311 311 311 312 311 312 313 313 312 310 308 309 310 310 309 308 307 307 308 310 312 314 315 316 317 317 315 316 315 315 315 317 318 320 320 319
324 325 327 327 327 326 324 324 324 323 321 319 319 318 318 317 317 317 317 316 315 316 315 316 315 313 313 312 310 311 310 309 310 310 310 310 308 305 307 306 304 305 308 311 310 308 308 309 310 310 310 310 311 312 312 312 312 311 309 309 309 309 309 309 307 307 307 308 309 311 313 314 316 316 315 315 315 315 315 315 316 317 317 317 317
322 323 325 325 324 323 324 323 322 321 319 319 319 317 316 316 315 315 315 316 316 316 315 313 313 312 313 312 311 311 311 310 310 310 309 308 309 307 305 307 307 306 307 309 308 307 306 307 308 308 309 309 310 311 312 312 312 310 310 309 309 309 309 309 307 307 307 307 307 309 312 313 313 313 313 313 313 313 314 314 315 315 315 315 317
322 323 323 323 322 323 322 321 319 319 319 317 317 316 315 314 314 314 314 314 314 315 313 314 314 312 311 312 311 311 310 311 311 310 310 310 309 307 307 307 306 305 306 306 304 305 306 307 307 306 307 308 309 310 311 311 311 311 309 309 309 310 309 308 308 307 307 306 306 307 308 310 311 312 312 312 312 312 312 312 309 309 310 311 312
323 323 323 323 322 323 322 320 319 318 318 317 316 315 315 313 314 314 314 313 314 314 314 314 313 313 313 311 311 310 310 311 310 310 308 308 306 306 307 308 308 304 305 304 304 301 304 306 306 306 307 307 308 309 311 310 312 310 309 309 311 310 309 308 308 308 307 306 306 306 306 307 308 309 309 309 309 308 308 307 308 309 309 309 310
321 321 322 322 322 321 320 319 318 318 317 315 314 314 315 314 314 314 313 314 313 313 312 313 311 311 312 311 310 310 309 309 309 309 309 308 307 306 306 304 304 304 305 304 304 301 301 305 305 305 306 308 309 309 310 310 310 310 309 311 311 310 309 308 307 308 307 306 306 305 305 305 305 305 305 305 306 306 307 309 309 308 308 309 309
320 320 320 321 321 320 319 317 317 316 316 314 313 314 314 313 312 312 312 312 312 312 312 313 312 312 311 310 310 308 309 309 309 309 308 309 308 307 306 305 302 300 303 302 302 300 303 302 305 306 306 306 307 309 310 310 310 309 309 310 311 311 308 306 307 308 307 306 306 305 304 304 304 304 304 305 307 307 308 309 308 307 307 308 310
319 320 320 320 319 318 317 317 316 315 315 314 314 314 314 313 313 312 312 313 312 311 311 311 312 311 310 310 309 308 308 310 309 309 310 310 309 308 307 304 305 302 300 300 300 299 302 303 301 303 306 306 307 309 309 309 309 308 309 310 310 311 308 306 306 306 307 306 305 304 304 304 304 304 305 307 308 307 307 307 307 307 307 308 309
318 319 319 319 318 317 316 315 315 314 313 313 313 314 314 312 312 312 311 313 312 312 311 311 311 311 310 310 310 308 310 309 308 309 310 310 308 308 307 306 306 303 302 300 300 302 302 305 304 303 305 306 307 309 309 308 309 307 308 309 310 310 307 307 306 305 305 305 303 302 303 304 304 304 305 306 306 306 305 305 305 305 305 306 307
318 319 318 318 317 316 315 314 314 313 313 313 313 313 313 311 311 310 312 312 311 310 311 311 310 311 309 309 309 308 309 309 309 309 309 309 307 307 307 307 306 306 304 304 299 302 305 302 304 306 305 306 306 308 308 308 308 307 308 309 309 308 309 308 307 306 305 304 303 304 304 304 302 303 303 304 305 305 304 305 304 304 304 304 303
319 319 317 316 316 315 315 314 313 312 312 312 312 312 312 311 311 310 311 310 309 309 309 310 309 308 308 307 308 308 308 308 308 308 308 308 308 306 307 306 306 306 305 304 302 300 304 304 304 305 306 306 307 306 306 306 307 308 308 308 309 309 309 309 307 306 305 303 303 303 303 302 302 303 303 304 303 304 304 302 302 302 302 301 301
318 317 316 316 315 315 314 313 312 312 312 311 312 312 311 310 310 310 309 309 307 307 308 308 308 308 306 306 306 307 308 308 307 307 307 307 307 306 306 305 304 306 304 304 301 301 304 307 305 305 306 307 305 306 305 305 306 307 308 309 310 309 309 309 309 306 305 303 302 301 301 301 301 303 303 303 303 303 302 301 301 301 301 301 300
317 316 315 316 315 314 313 312 311 310 310 311 311 311 310 310 310 310 309 308 307 307 307 306 308 308 308 306 306 307 307 307 307 306 306 306 306 305 304 305 303 304 306 304 302 301 301 305 304 306 305 306 303 305 304 304 305 307 307 307 308 308 308 309 308 308 305 303 302 301 301 301 300 301 301 300 299 299 299 299 299 298 300 300 297
317 317 316 316 314 314 313 311 310 310 310 310 311 310 310 309 308 309 309 308 307 307 306 306 306 307 307 307 307 307 308 307 307 307 307 307 307 306 305 306 305 306 306 306 303 302 302 302 305 304 304 305 304 303 303 305 306 307 305 306 306 307 308 308 308 308 304 303 302 302 301 301 301 300 299 299 299 299 299 299 299 298 298 298 298
315 317 316 315 314 313 312 310 310 309 309 310 309 309 308 309 308 307 308 308 307 307 306 306 306 306 306 306 306 307 307 306 306 305 306 307 306 305 305 305 306 306 307 306 306 304 303 302 304 302 304 303 303 303 303 305 305 305 306 307 307 307 307 307 307 307 305 303 302 302 302 301 300 300 299 299 299 299 299 299 299 299 299 299 299
316 315 315 315 313 312 311 309 309 309 309 309 308 308 309 309 308 308 307 307 308 307 307 306 306 306 305 305 305 306 306 306 306 305 306 306 305 305 305 305 305 306 306 306 305 305 303 302 302 303 304 303 303 304 304 302 303 304 305 305 305 306 307 307 307 306 305 304 303 303 302 301 300 300 300 299 299 299 298 299 299 299 300 300 300
315 315 314 313 312 311 309 309 309 309 309 309 308 308 308 308 308 308 308 307 307 306 306 306 306 306 306 305 305 305 305 305 305 306 307 306 307 305 305 305 305 306 306 305 305 304 304 302 302 301 303 302 301 303 303 303 302 302 303 304 306 306 305 305 305 306 306 305 305 304 303 302 301 300 300 299 298 298 299 299 299 301 300 300 299
315 314 313 312 312 310 309 309 309 309 308 308 308 308 307 308 308 307 307 307 306 306 306 306 306 306 306 306 306 305 305 305 305 305 306 307 306 305 305 305 305 305 304 304 304 303 303 302 302 302 301 302 302 300 302 303 303 303 302 302 302 304 305 303 302 304 305 304 304 302 302 302 302 302 300 299 299 300 300 300 301 301 300 300 299
314 313 312 312 311 310 309 309 309 309 308 308 308 308 308 308 307 307 307 306 306 306 306 306 306 306 306 305 304 303 303 303 304 304 304 305 306 305 304 305 304 304 303 303 303 301 302 302 300 300 300 300 301 302 302 302 301 301 303 302 300 301 302 303 303 302 303 303 303 303 303 302 302 302 300 300 301 301 301 301 302 300 300 299 298
314 313 313 312 310 308 308 309 309 309 308 308 308 308 307 307 307 306 306 305 306 305 305 305 305 304 303 303 302 302 301 299 297 298 297 298 305 303 303 304 303 303 302 302 302 300 301 301 300 301 299 299 300 299 298 298 298 298 302 303 302 302 301 301 302 304 303 301 302 303 302 302 301 301 301 301 302 302 302 302 301 299 298 298 297
313 313 312 311 309 308 308 308 309 308 308 308 306 303 304 307 307 306 307 307 306 306 305 304 304 304 302 301 300 301 301 300 297 295 294 295 295 301 302 302 301 301 300 300 300 300 301 299 299 299 298 298 298 299 298 299 301 302 301 302 300 301 301 301 302 303 303 302 300 300 301 302 300 300 300 299 301 301 300 300 299 298 297 296 297
313 312 311 310 309 308 308 308 308 308 308 307 296 295 295 300 307 307 307 307 306 306 305 305 304 304 303 303 304 304 304 303 302 294 295 293 293 293 293 295 297 300 300 298 299 300 299 300 300 299 297 298 298 299 299 299 300 301 301 302 301 301 299 297 296 300 304 302 300 299 299 302 301 298 299 299 299 299 300 298 297 297 297 296 297
312 312 311 309 308 308 308 308 308 308 308 299 293 294 295 295 300 307 307 306 306 306 305 305 304 304 303 302 302 301 301 303 304 304 301 295 294 293 292 292 292 291 293 298 298 298 300 300 298 298 298 298 298 299 298 299 299 300 301 302 301 301 299 298 298 297 301 304 299 298 298 301 301 299 298 299 300 300 299 298 296 296 296 296 296
312 311 310 309 308 308 308 307 307 307 306 294 293 293 294 294 294 301 307 307 306 305 305 305 305 304 303 302 302 302 302 302 302 303 303 303 298 294 295 294 293 292 290 290 292 299 301 301 300 298 298 299 298 298 300 299 301 300 300 300 301 301 301 299 298 299 301 304 300 297 296 299 300 299 298 299 300 300 299 298 296 296 296 296 296
311 310 310 309 308 308 307 307 306 307 304 295 293 292 293 292 293 295 307 307 306 305 305 304 305 304 304 303 302 302 304 302 301 302 303 303 304 304 304 304 304 303 293 290 291 291 298 302 301 299 300 301 298 300 301 301 300 299 299 300 301 301 301 300 302 301 303 304 299 297 296 298 300 299 298 300 301 300 299 297 295 295 295 295 295
310 309 309 308 308 308 308 307 307 306 304 293 292 292 292 292 292 295 307 306 306 306 305 305 304 304 303 304 303 303 303 300 299 297 300 303 305 304 304 304 305 304 303 300 300 300 301 302 301 301 301 301 301 301 302 301 301 301 302 302 302 302 303 304 302 302 303 304 302 298 293 297 299 297 297 299 299 299 299 297 296 296 296 295 295
311 310 309 308 307 307 308 308 307 306 304 292 292 292 292 292 291 305 305 305 304 304 304 304 303 304 304 304 303 302 303 301 296 289 293 299 305 303 302 304 304 304 304 302 295 296 301 301 301 301 301 301 296 301 302 301 301 302 303 303 303 303 301 299 297 300 299 303 303 297 295 296 299 296 296 299 298 298 299 298 296 296 296 295 295
308 308 307 307 307 307 306 306 307 306 303 294 292 292 292 291 295 305 305 304 304 304 303 303 303 304 304 304 304 303 302 301 294 288 290 292 304 302 303 303 303 302 301 304 296 290 291 291 292 292 291 291 292 292 292 292 299 300 302 299 298 300 298 296 297 297 298 300 301 300 297 294 297 296 294 296 297 297 296 296 297 296 296 295 295
307 307 307 306 306 306 305 304 304 303 301 296 291 292 292 291 297 305 304 303 303 303 303 304 304 303 300 299 303 304 302 300 290 289 288 298 303 302 303 302 301 300 300 302 304 302 294 294 293 292 292 292 293 294 294 294 293 298 302 297 299 299 298 298 296 297 298 299 299 301 297 295 297 297 294 295 296 298 297 296 296 297 296 296 295
307 307 306 306 304 304 304 303 303 302 301 298 292 292 291 292 298 306 303 303 302 302 302 301 303 303 301 300 298 298 301 297 287 289 288 295 304 303 303 301 299 299 298 301 302 300 302 304 304 304 301 300 303 303 302 295 295 299 303 302 301 299 297 297 297 296 294 296 299 302 295 295 295 298 296 293 290 295 298 297 296 296 296 296 296
Wind_Speed
4 4 3 3 4 4 4 4 3 3 3 1 1 1 0 1 2 2 1 3 1 3 4 4 5 3 4 5 5 5 5 5 5 6 5 5 5 10 14 13 13 14 14 14 14 12 10 8 5 5 7 8 10 11 12 14 14 14 14 13 13 14 13 14 13 13 15 15 15 15 13 14 14 13 13 12 13 12 11 12 11 10 10 10 10
4 3 4 4 3 3 3 3 3 3 2 2 1 1 1 1 1 3 4 3 4 4 4 3 5 3 3 6 5 5 4 4 5 5 5 4 4 8 15 15 16 16 16 16 17 16 14 11 9 7 7 9 10 11 12 13 14 15 13 11 13 11 11 13 14 15 17 17 15 17 16 15 14 14 14 13 13 13 12 12 12 12 10 10 10
3 3 3 4 3 3 2 3 3 3 2 2 1 1 1 2 3 4 4 5 4 4 5 5 5 5 4 4 5 4 4 4 4 5 5 5 4 4 12 17 17 17 17 17 17 17 17 16 15 14 13 11 11 11 11 12 12 13 13 12 11 9 10 12 13 15 16 17 17 15 16 16 14 15 14 14 14 14 12 13 12 13 12 11 9
2 3 3 3 3 2 2 2 2 2 1 1 2 2 1 3 3 2 3 4 4 4 5 4 5 5 5 6 5 5 5 5 5 5 5 6 5 5 5 10 17 17 17 18 17 17 18 18 18 19 18 17 14 12 12 12 11 11 12 11 10 9 10 12 13 14 15 16 16 17 16 15 16 16 15 14 14 14 13 13 13 13 13 12 11
3 3 3 3 2 2 2 2 2 2 2 1 2 1 1 1 2 2 3 4 4 5 5 4 4 4 4 6 5 6 5 5 5 6 6 6 6 6 6 6 7 16 17 17 18 18 19 20 20 20 20 21 19 17 18 17 17 16 15 15 13 11 11 11 12 13 13 15 16 16 16 15 17 17 16 15 14 14 13 13 13 13 13 13 11
3 3 3 2 2 2 2 2 2 2 2 1 1 2 2 3 2 2 3 3 4 5 5 5 5 5 5 5 4 5 5 5 5 6 6 7 7 7 7 7 7 6 9 19 18 18 19 18 18 18 19 20 20 20 20 20 20 19 19 18 16 15 15 14 12 11 12 13 13 14 15 16 16 17 17 16 15 14 13 14 14 14 14 14 13
3 3 3 2 3 3 2 2 2 1 1 2 2 2 3 3 4 4 4 3 5 4 5 5 5 5 5 4 5 5 5 5 6 6 6 7 7 8 8 8 8 7 8 5 15 16 15 15 16 18 18 18 18 19 20 19 19 19 20 20 19 19 18 16 16 16 14 12 13 14 14 15 14 17 17 16 15 14 15 14 14 13 14 15 14
4 3 2 2 2 2 2 2 2 1 2 2 1 3 3 3 4 5 4 4 4 5 5 4 4 4 3 3 3 4 4 5 6 7 6 6 7 7 7 8 8 7 8 7 6 12 15 12 12 15 17 18 18 18 18 18 18 20 20 21 21 20 20 20 19 18 17 16 15 14 14 14 17 18 18 17 13 18 17 14 14 14 14 14 15
4 2 2 2 2 2 2 2 1 1 2 2 2 3 3 3 3 4 4 4 3 5 5 4 4 2 2 3 4 4 5 6 5 6 5 7 7 7 8 8 8 8 6 7 7 7 9 10 10 11 15 15 16 16 17 18 18 18 19 21 21 21 22 22 21 20 20 18 18 17 16 17 17 14 16 17 17 21 18 16 15 15 15 15 16
3 3 2 1 2 2 2 2 1 2 2 2 2 3 4 4 3 3 4 4 4 4 5 4 4 2 3 4 4 4 5 5 5 5 6 7 7 7 7 7 7 7 7 7 8 7 7 9 9 8 12 13 14 15 15 16 17 17 18 19 21 20 21 22 21 20 21 21 19 19 19 19 19 18 17 14 16 19 18 17 17 16 16 16 16
3 3 2 2 2 3 2 2 2 2 2 1 3 4 4 4 5 4 2 2 4 3 4 4 2 0 2 4 4 6 6 5 5 6 7 7 7 7 7 7 6 7 7 7 8 8 8 8 8 8 8 12 12 13 13 13 16 17 17 19 19 20 21 21 21 21 20 21 20 20 20 21 20 19 18 18 18 16 16 18 18 17 18 17 15
4 3 3 2 3 3 3 2 2 2 2 3 3 3 4 4 4 5 3 2 4 4 4 4 1 2 4 5 7 7 7 6 6 7 7 8 7 7 7 7 7 6 7 7 8 8 8 8 8 8 8 9 10 11 11 11 15 16 16 18 20 20 20 20 20 21 21 21 21 22 21 21 21 20 18 19 21 20 17 20 20 22 20 19 15
4 4 4 3 4 4 3 3 2 3 3 4 3 4 3 3 3 2 3 2 5 6 6 5 2 4 3 6 7 6 7 6 7 8 8 8 7 7 7 7 6 7 6 6 7 8 8 8 8 8 8 8 8 11 10 10 13 16 15 17 19 20 20 20 20 20 21 22 22 22 22 21 21 20 20 18 20 21 21 16 22 21 21 19 16
4 4 4 4 5 4 3 3 3 4 3 3 4 3 4 3 3 1 3 4 5 7 7 7 1 2 3 6 5 5 6 6 7 9 9 8 7 7 7 7 7 6 6 6 6 7 7 7 7 8 8 8 8 8 8 9 11 15 14 16 20 20 20 20 20 21 20 21 21 22 22 22 22 21 21 20 20 21 21 19 19 19 22 20 18
5 5 4 4 4 4 4 3 3 2 2 3 3 4 4 3 4 3 2 4 6 6 8 9 4 2 1 4 5 6 5 6 7 8 9 9 7 8 7 7 8 7 7 7 7 7 7 8 8 8 9 9 9 9 8 9 11 13 13 15 20 21 21 21 20 20 20 20 20 20 21 22 22 22 22 21 21 21 20 18 18 19 18 23 19
5 5 5 4 4 3 3 3 3 3 3 3 4 4 4 4 4 3 2 3 5 7 8 9 7 5 3 2 2 3 6 5 4 7 8 11 9 9 7 7 7 8 7 8 8 7 7 8 8 8 8 8 8 8 8 8 12 12 13 14 20 21 22 22 21 21 21 21 21 20 21 21 22 23 23 23 22 21 20 17 17 18 22 18 22
5 5 6 6 5 4 4 5 4 3 3 3 4 5 4 4 4 4 5 3 5 5 7 8 10 9 6 2 3 4 4 3 2 7 5 7 9 8 7 7 7 7 6 6 6 6 6 7 7 7 8 8 8 8 8 8 9 10 10 14 21 21 21 21 22 22 21 22 21 21 21 21 21 22 23 23 22 22 21 20 19 19 21 23 19
5 6 6 5 6 5 4 4 3 3 4 4 4 4 6 6 5 4 5 5 3 4 5 6 8 10 10 9 7 5 3 2 5 5 5 7 7 8 7 7 6 6 6 7 8 7 7 7 8 8 8 8 8 8 8 8 9 9 9 12 22 21 21 21 22 22 23 22 22 21 21 22 22 22 22 22 21 21 21 21 20 21 21 21 23
5 6 6 6 5 5 5 4 4 4 5 5 5 5 5 6 5 6 5 5 4 5 4 5 6 8 8 9 9 7 6 4 3 3 5 6 6 6 7 7 7 7 6 8 8 7 8 7 8 8 8 8 8 8 8 9 10 10 12 18 21 21 20 20 21 22 23 23 23 22 22 22 22 22 21 22 22 21 21 21 22 21 21 22 22
4 6 6 6 6 6 6 5 5 5 5 6 6 5 5 6 6 6 6 6 6 5 6 5 5 6 5 6 7 7 7 8 6 5 3 3 5 6 6 6 7 7 7 7 8 8 8 8 8 8 8 8 8 8 8 9 9 10 10 18 20 21 21 20 20 20 22 23 23 23 23 23 23 22 22 22 22 22 22 22 22 22 22 22 21
5 6 6 6 5 6 6 6 6 6 6 6 7 7 8 7 7 7 7 7 6 6 6 7 6 5 4 5 5 5 6 6 5 6 4 2 4 3 3 3 5 6 6 5 5 6 7 8 8 8 8 8 9 9 9 9 9 9 11 18 20 20 20 20 20 19 21 23 24 24 24 24 24 23 22 21 22 22 22 22 22 22 21 21 21
6 6 6 6 6 6 7 8 7 7 7 7 8 8 7 8 8 8 8 8 7 8 8 7 7 6 6 4 4 4 4 5 6 4 4 4 4 4 3 2 2 3 3 5 4 6 5 6 6 7 8 8 9 9 9 9 9 8 12 18 20 21 19 19 19 20 21 23 24 24 24 24 24 23 23 22 22 21 22 22 22 21 21 20 21
5 5 6 6 6 6 7 7 7 7 7 7 6 6 6 7 8 9 9 9 8 9 9 8 7 8 8 7 7 7 6 7 6 5 5 5 3 4 3 2 3 4 4 2 3 6 6 7 7 7 8 9 8 8 9 9 9 10 15 17 19 20 18 18 17 18 21 24 24 24 24 24 24 24 24 23 23 22 22 21 22 23 21 21 21
5 5 6 6 6 6 7 8 7 7 7 6 6 6 6 6 7 7 7 8 8 8 8 8 9 8 8 7 7 7 7 6 5 6 6 5 4 4 5 4 3 4 4 4 2 6 8 9 8 9 9 9 9 9 9 10 9 13 15 17 19 19 16 16 16 18 20 22 23 23 24 25 24 24 25 25 23 23 22 22 22 23 22 21 20
6 6 7 7 6 7 6 6 7 7 7 7 7 7 7 7 8 8 8 9 8 8 8 9 8 8 7 7 7 7 7 6 6 6 6 5 6 5 5 4 4 4 4 5 7 7 8 8 9 11 10 11 10 10 10 10 10 11 17 16 18 14 11 12 13 18 19 17 19 21 23 24 25 26 26 25 24 23 23 22 22 21 22 21 20
7 7 7 7 7 6 7 8 8 8 8 8 8 7 8 8 8 8 9 8 9 9 9 9 9 9 7 7 7 7 7 7 7 7 7 7 7 7 5 2 4 5 4 6 8 9 9 7 9 11 10 11 11 10 10 11 10 13 18 17 13 10 11 5 14 20 19 15 16 18 20 23 25 27 26 26 25 24 23 23 22 22 22 22 20
7 7 7 8 8 8 8 8 8 8 7 7 7 8 7 7 8 8 8 8 9 8 9 9 9 9 9 7 7 7 7 7 7 7 7 7 7 6 7 6 4 5 4 7 6 12 12 8 9 12 12 12 11 11 12 12 12 17 19 13 12 13 9 10 18 21 17 14 14 15 16 20 22 25 27 25 26 25 24 23 22 22 22 23 23
7 8 8 8 8 9 8 8 8 7 7 8 8 7 8 8 8 8 9 7 9 10 9 9 9 9 8 8 7 8 7 7 7 6 6 6 6 6 7 7 7 7 6 6 8 9 13 11 9 12 13 13 12 12 14 13 11 19 18 13 12 13 11 17 21 19 13 12 13 14 16 18 22 27 26 25 25 25 24 23 22 22 22 22 23
7 7 8 8 8 8 8 8 7 7 8 8 8 8 8 8 8 8 8 8 8 9 8 8 8 7 7 8 7 7 7 6 6 5 5 5 5 6 7 8 7 7 8 8 10 10 12 13 12 12 14 14 13 12 13 12 13 15 15 13 13 12 15 19 21 10 9 10 12 11 14 18 22 25 26 26 25 24 24 23 23 22 22 22 23
7 7 9 9 8 9 8 8 7 7 8 8 8 9 9 8 8 8 8 8 8 7 7 7 7 7 7 6 6 7 6 6 6 6 5 5 5 6 6 7 7 8 7 7 7 8 9 10 10 11 13 14 13 12 12 13 14 16 15 14 13 13 18 19 12 9 9 9 9 11 15 18 21 22 25 27 26 24 24 24 23 23 23 23 24
9 9 9 9 8 8 8 8 7 8 8 8 8 8 8 8 8 8 7 7 7 7 6 6 6 6 6 6 5 5 5 6 5 5 5 5 6 6 6 6 8 7 6 5 6 7 7 9 9 10 12 14 13 12 12 12 14 16 15 14 13 16 19 16 14 11 10 8 10 13 19 20 18 20 21 25 27 26 25 25 25 24 23 23 22
9 10 9 9 9 9 8 8 8 8 8 8 9 9 8 8 7 7 7 8 8 7 7 6 5 6 7 7 6 5 4 4 5 5 5 6 6 6 6 6 6 7 6 5 6 7 7 7 8 9 12 13 13 12 14 13 13 16 15 14 14 16 15 16 18 14 9 10 13 16 20 20 20 20 21 25 26 26 26 24 24 24 22 21 21
9 10 9 9 9 9 9 8 8 8 9 9 8 8 8 8 8 8 8 8 8 7 7 7 6 6 6 7 7 6 5 5 5 5 6 6 6 6 6 6 6 6 7 6 7 7 7 7 8 9 10 12 11 12 14 15 15 14 15 13 14 13 14 14 16 16 12 13 17 18 17 18 18 21 23 22 21 21 21 20 20 20 20 20 19
9 10 10 9 9 9 8 9 9 9 10 10 9 8 9 9 8 6 7 8 8 8 7 7 6 4 5 7 7 6 5 6 6 6 6 5 6 6 6 6 6 6 6 6 7 7 9 8 9 9 10 12 11 13 14 16 16 15 16 14 12 12 12 14 15 15 16 17 18 16 17 18 19 20 20 19 18 18 17 18 17 17 18 18 17
9 9 10 9 9 9 9 9 9 10 10 10 9 9 9 9 9 8 7 8 8 7 7 7 7 6 6 6 5 5 4 5 5 5 5 5 5 5 5 4 5 5 5 5 6 8 9 9 9 10 10 11 12 13 14 13 14 15 15 14 13 12 12 15 16 15 16 17 17 18 19 19 19 19 18 18 17 16 17 17 18 18 17 18 17
10 9 10 10 9 9 9 9 10 10 10 9 10 10 10 9 9 9 8 7 7 7 7 6 6 6 6 5 5 5 5 6 5 5 6 5 5 5 5 4 4 5 4 5 5 6 7 9 9 10 10 11 11 12 12 13 14 15 14 13 13 13 15 15 17 16 17 17 19 21 21 19 18 18 17 16 17 18 17 17 17 17 17 17 17
10 10 9 9 9 9 8 10 10 10 11 11 10 10 9 8 9 8 8 7 7 7 6 6 6 6 6 6 5 5 5 6 5 6 6 6 5 6 5 5 5 5 4 5 6 6 7 8 9 9 10 10 11 12 13 14 14 14 14 14 14 13 15 16 15 15 19 20 20 21 20 19 19 19 17 16 17 18 17 17 17 17 16 17 18
11 10 10 9 8 9 9 10 10 11 11 10 10 10 9 8 8 7 8 7 7 7 6 6 6 5 5 6 6 6 6 6 5 5 5 5 4 5 6 6 6 6 6 6 6 7 7 8 9 10 10 11 11 11 14 14 15 14 14 14 14 13 14 16 16 15 16 17 18 19 20 20 20 20 17 16 16 17 18 17 15 13 17 19 20
11 10 10 9 8 9 10 10 11 11 11 10 10 9 9 8 8 8 7 7 7 6 6 6 5 5 5 5 6 6 6 6 6 6 5 4 3 5 5 6 6 7 7 7 7 8 8 8 9 9 10 10 11 12 13 14 14 13 15 14 14 14 14 15 16 16 16 18 20 19 18 19 21 19 16 16 16 17 17 16 12 16 21 22 22
10 10 10 10 9 9 10 10 10 10 10 10 9 9 8 8 8 8 7 7 7 6 6 6 5 5 6 6 7 7 7 7 7 6 6 5 4 5 5 6 7 7 7 7 7 8 8 8 9 10 10 11 10 11 12 13 13 13 13 13 14 15 16 15 16 16 17 19 19 18 17 19 20 20 18 16 15 17 16 15 15 23 28 28 24
8 10 10 10 10 10 10 10 11 10 9 9 8 8 8 8 8 8 8 7 7 7 7 6 6 6 6 6 7 7 7 7 8 6 6 6 5 5 6 6 7 7 7 7 7 8 8 8 9 9 10 10 11 13 14 14 15 15 14 13 12 13 14 14 14 14 15 18 19 20 18 17 18 17 17 16 16 20 18 18 18 28 28 25 24
10 9 10 10 10 10 11 11 10 9 8 7 6 6 6 8 8 6 6 7 6 6 6 6 6 6 7 7 7 7 6 6 4 1 1 3 6 6 5 6 7 7 7 8 8 8 8 8 9 10 11 11 12 13 13 14 13 14 14 13 13 13 13 14 14 14 16 19 19 20 18 16 16 17 16 17 15 16 14 15 18 22 26 25 25
10 10 9 10 10 10 11 11 11 9 7 6 8 6 5 4 7 7 6 6 6 6 6 6 6 6 6 6 6 5 6 8 7 7 5 4 2 1 1 4 6 6 7 8 8 8 8 8 9 9 10 11 12 12 13 14 14 14 14 13 13 14 15 18 16 14 15 19 17 18 18 16 17 16 16 15 16 15 14 15 23 26 27 27 26
10 9 10 10 10 10 10 11 10 9 8 10 8 6 4 3 4 5 6 6 5 5 5 5 5 6 6 5 5 5 5 5 3 5 6 6 4 4 4 4 3 1 4 5 6 7 8 8 9 9 10 10 11 12 13 13 14 14 14 12 13 14 15 15 15 16 15 17 19 18 16 16 17 16 14 14 15 14 16 20 25 26 26 27 26
10 10 10 10 10 10 10 11 11 10 9 10 8 7 3 1 4 4 6 5 5 5 5 5 5 4 5 5 4 4 4 2 4 2 1 4 8 8 9 8 5 6 7 8 8 5 7 7 8 9 10 10 11 11 12 14 13 14 13 13 13 13 13 13 13 14 15 16 16 15 17 17 17 17 16 16 16 15 17 21 25 26 27 28 27
10 10 10 10 10 10 10 11 10 10 11 10 9 7 5 3 3 7 7 4 5 5 5 5 4 4 3 3 4 4 4 4 5 5 3 2 3 1 0 2 3 9 10 11 11 12 10 6 7 8 9 9 9 10 12 12 14 13 13 13 15 13 13 13 14 13 13 14 16 16 14 17 18 17 17 16 16 15 14 21 24 26 28 29 28
11 10 10 11 10 10 10 10 9 10 9 12 9 8 6 5 5 7 6 4 5 5 4 4 4 4 4 3 3 4 4 4 5 6 7 4 3 2 2 1 1 3 6 7 7 7 5 6 6 7 7 7 8 9 9 11 12 12 11 13 14 13 11 10 10 12 11 12 16 15 15 17 17 18 15 16 16 15 15 19 24 26 28 28 28
10 10 10 9 10 10 10 9 8 9 9 12 9 9 7 7 7 4 6 5 5 5 4 4 4 3 3 2 3 3 3 4 5 6 7 7 4 3 3 3 3 2 4 4 1 4 5 5 5 6 6 8 9 8 8 8 10 12 11 10 11 11 11 12 12 13 12 11 14 15 15 15 17 17 17 14 14 12 14 15 21 24 26 26 25
11 11 10 10 10 10 10 9 9 8 9 9 10 9 9 9 7 4 6 5 5 5 4 4 3 3 2 2 2 2 2 4 4 7 9 10 4 4 4 4 4 5 6 2 10 11 10 11 11 11 12 12 12 11 10 10 8 11 10 11 12 12 12 13 13 13 13 12 13 16 14 15 18 18 17 14 13 10 13 14 14 19 25 24 24
12 11 11 11 10 10 9 9 7 8 9 9 11 10 9 11 9 4 5 5 5 5 5 3 3 3 5 6 6 2 2 4 3 7 9 9 4 5 5 5 6 6 7 7 6 3 8 11 12 13 13 12 10 11 4 7 9 9 10 11 13 12 12 12 13 13 12 13 14 16 13 15 15 15 16 15 9 6 10 12 15 16 20 19 24
11 10 10 10 10 10 10 11 12 10 9 9 11 11 10 10 8 5 5 5 5 5 5 4 3 4 5 5 6 6 5 4 2 4 7 8 4 5 5 5 5 6 7 8 6 8 8 9 8 8 7 6 8 8 9 7 8 11 10 10 10 11 12 12 12 12 11 12 14 17 12 13 14 14 14 14 13 9 7 12 13 14 15 15 17
Wind_Direction
158 154 169 162 155 164 164 152 156 130 150 152 173 158 48 351 348 302 297 321 333 323 336 353 311 343 326 326 345 345 351 337 342 327 337 339 329 76 71 54 51 47 38 36 33 27 18 15 354 311 294 292 287 289 286 288 292 296 294 291 288 284 281 281 266 258 267 270 273 266 257 258 262 266 272 270 268 273 271 273 273 275 278 277 277
153 151 167 165 165 167 163 152 138 133 168 161 117 91 34 38 315 321 344 332 350 7 324 324 311 323 7 337 356 350 343 346 339 340 348 340 0 82 73 66 61 52 45 40 37 34 32 25 18 346 321 308 307 299 303 308 302 299 300 285 288 285 262 266 265 258 261 262 262 269 264 256 255 263 268 270 266 269 265 268 269 270 271 275 273
158 168 173 182 187 184 177 156 151 139 182 120 103 71 61 34 14 4 2 348 349 344 326 336 337 345 356 352 0 343 357 357 353 357 356 360 1 69 78 73 67 56 49 44 40 38 35 33 29 24 16 7 350 341 339 326 324 322 312 310 302 292 266 272 276 270 266 267 262 257 265 260 252 254 255 260 263 264 257 258 263 266 267 269 270
172 179 189 199 198 196 175 180 132 160 125 101 91 63 58 60 35 25 2 338 336 341 330 344 336 358 339 10 2 352 7 7 8 17 19 21 24 20 71 94 77 71 61 48 47 43 39 37 35 33 29 25 18 10 0 352 349 345 340 341 334 322 304 292 284 274 268 269 272 269 261 267 261 251 251 254 259 261 250 252 255 258 259 262 266
180 195 201 200 191 193 175 145 153 102 104 65 69 111 87 92 88 38 360 342 354 349 342 337 337 1 359 6 359 11 13 20 25 32 35 35 29 35 36 33 86 91 75 65 49 37 37 34 31 27 25 23 22 25 25 25 29 24 22 21 16 3 346 324 310 304 286 273 273 272 267 254 258 265 256 249 251 253 250 249 250 254 256 252 257
188 185 210 189 178 183 151 138 121 125 120 152 112 54 45 33 25 30 25 358 0 354 344 347 347 351 17 355 18 22 20 38 39 48 40 41 40 35 28 30 21 16 81 78 63 45 36 37 30 26 26 19 18 19 17 14 15 18 17 15 15 14 10 11 358 325 303 294 284 283 278 270 265 262 262 256 249 248 244 237 243 249 253 251 249
203 202 201 173 166 148 156 144 122 134 120 68 18 66 42 24 22 4 21 18 356 358 349 346 345 350 8 4 12 39 44 41 49 45 58 57 51 45 38 33 22 23 8 30 81 60 46 36 38 33 27 23 18 16 16 10 6 11 11 9 10 12 8 9 13 13 2 332 305 292 287 288 272 261 259 256 248 253 247 238 239 242 247 249 244
202 197 177 195 160 140 143 115 134 117 69 66 0 53 46 28 31 8 10 12 7 356 344 342 337 356 359 19 42 44 55 62 59 54 40 47 55 50 45 37 26 26 9 11 12 79 54 29 38 41 32 24 20 17 17 14 8 7 6 6 4 9 6 4 9 10 7 8 6 1 336 299 283 281 278 272 250 246 242 240 235 238 242 244 245
192 169 186 196 146 149 128 137 138 89 87 77 48 35 36 29 37 12 6 1 9 2 335 339 335 353 48 55 53 54 49 52 52 58 57 54 45 48 46 32 32 15 24 11 10 358 51 27 18 49 43 28 19 17 16 16 12 6 8 2 3 7 6 2 1 4 1 1 360 1 360 357 349 321 289 276 259 249 244 238 233 232 235 239 241
179 168 195 191 145 137 120 133 107 98 99 81 55 44 36 13 15 9 2 0 15 1 342 348 331 352 66 61 52 56 74 70 65 57 55 49 45 43 39 40 28 24 18 23 10 19 7 7 8 10 51 31 20 15 14 17 12 7 7 4 4 4 2 -0 358 358 359 355 355 356 359 353 351 354 349 314 275 264 238 233 232 232 233 232 237
165 169 175 180 151 132 130 113 109 94 88 80 64 48 27 25 3 351 354 32 12 12 347 327 323 35 113 98 76 74 64 61 55 57 57 47 45 37 34 31 33 28 23 22 23 12 9 7 0 0 8 27 14 14 10 13 16 7 5 5 4 2 -0 358 356 353 353 352 351 354 356 351 347 349 345 345 336 289 258 235 237 235 235 232 230
167 155 162 159 138 128 116 116 85 71 48 44 26 39 17 8 9 352 344 68 37 4 5 331 289 116 113 88 87 83 72 61 56 54 52 44 39 34 31 27 27 27 28 26 27 15 8 6 6 1 354 3 5 9 7 6 19 6 5 6 2 0 358 356 353 350 349 349 349 351 351 348 345 344 343 344 343 340 292 253 247 243 238 233 225
154 145 156 149 135 122 120 105 82 61 47 50 40 30 11 1 336 25 347 39 38 9 12 321 301 134 121 123 121 102 86 64 57 63 56 44 33 40 38 30 27 25 26 32 25 22 11 8 7 2 357 354 352 359 0 357 20 3 1 6 2 358 356 354 352 349 347 346 346 347 345 343 342 341 341 341 341 336 338 307 256 247 239 235 218
139 142 151 147 139 129 116 82 65 60 49 49 37 31 16 9 325 143 45 45 53 19 7 324 92 342 164 146 137 110 91 78 70 57 52 46 45 46 47 40 31 31 26 25 29 27 20 13 10 6 1 356 352 352 352 354 8 357 354 2 2 357 354 353 350 347 345 344 343 341 340 340 339 339 340 341 337 334 331 338 331 271 247 234 218
136 136 139 130 122 113 98 79 52 42 49 43 34 29 26 15 6 343 119 85 72 39 26 7 2 338 325 197 146 160 136 128 97 76 63 46 46 49 45 41 39 35 32 27 26 24 21 19 10 9 4 360 354 352 349 352 359 346 350 2 1 355 353 351 349 346 345 342 340 338 337 335 335 337 337 337 333 331 330 340 342 329 259 240 226
129 130 119 107 102 95 82 70 57 38 31 42 42 45 41 32 25 21 329 89 61 56 35 25 17 326 185 17 107 265 148 90 86 98 85 63 47 50 43 45 39 38 41 32 25 17 13 19 5 8 3 357 354 351 346 349 346 344 347 3 359 351 350 349 346 345 344 342 339 337 335 333 333 335 334 332 331 327 330 333 338 340 337 271 232
98 102 101 92 83 83 85 86 72 47 44 57 57 46 47 50 45 41 25 37 90 77 55 35 34 22 4 214 174 102 42 64 143 84 65 71 63 55 51 41 41 36 33 30 17 11 6 7 5 2 0 355 354 350 344 347 348 345 343 359 353 346 347 347 344 343 342 341 338 336 334 334 332 331 328 327 326 329 331 331 331 335 334 335 274
86 86 86 93 90 88 90 88 77 67 66 68 71 73 50 53 42 45 54 33 61 107 93 63 49 39 45 50 21 28 26 3 261 122 112 79 76 63 53 46 40 40 34 28 24 19 13 9 9 4 2 359 354 351 344 349 347 344 343 351 346 342 341 342 342 342 340 339 338 335 334 332 331 329 324 323 322 328 330 329 331 325 332 331 327
76 91 93 92 93 85 81 80 81 88 79 77 76 64 60 48 48 50 46 47 56 79 77 106 87 62 59 52 52 43 32 349 62 185 141 97 68 58 55 50 45 42 36 34 27 22 16 8 6 2 0 1 354 350 347 347 346 342 342 350 342 337 337 337 339 342 339 337 336 334 333 332 330 327 325 321 321 325 327 326 326 328 327 328 337
89 93 96 92 88 89 87 84 86 81 86 81 74 69 72 65 55 56 53 51 47 65 71 51 68 73 61 77 74 61 48 49 22 18 50 88 86 93 74 59 57 42 31 26 25 19 18 9 5 359 358 358 353 351 347 346 344 342 346 346 336 334 335 335 338 339 337 335 333 333 332 332 329 326 323 323 323 322 321 322 322 322 323 326 329
83 83 82 88 94 93 90 90 88 88 87 84 76 70 63 60 59 57 58 59 56 61 67 62 59 69 91 82 76 73 73 59 50 35 24 96 93 64 68 92 74 48 23 11 13 11 11 11 3 358 359 358 353 351 348 345 342 336 348 340 331 333 334 335 338 338 338 334 331 329 330 330 328 326 324 323 321 318 318 318 317 318 318 319 325
83 82 85 92 95 99 98 93 89 85 83 83 81 73 68 65 61 63 65 70 64 60 62 66 66 59 54 56 74 78 69 62 48 47 63 35 50 48 52 37 30 61 24 5 354 13 359 12 360 1 357 354 351 347 347 339 336 330 339 333 333 330 330 334 336 336 336 333 330 328 328 328 328 326 325 324 319 318 315 314 314 313 314 317 318
98 93 96 95 92 91 94 95 93 93 90 86 78 78 76 76 72 70 66 68 71 70 69 67 68 64 60 59 59 51 47 50 37 37 36 35 41 51 39 30 38 51 42 23 343 12 8 15 12 6 359 357 351 345 342 334 325 338 329 329 329 326 327 328 328 331 334 332 329 328 326 328 328 327 326 323 321 317 314 312 310 312 313 315 315
110 108 102 97 96 99 100 100 97 93 89 85 86 83 81 78 75 74 72 70 73 73 73 74 73 74 66 64 62 58 54 51 45 36 31 31 16 30 30 6 42 42 46 38 57 29 14 16 10 8 6 358 353 347 340 334 334 341 332 326 323 318 317 322 329 335 333 331 331 329 329 327 327 327 325 324 321 318 315 312 310 311 312 311 311
117 111 105 108 112 112 109 103 99 91 92 92 86 83 82 79 78 76 73 71 67 72 73 67 68 70 73 65 64 61 60 54 43 40 38 34 24 25 18 31 4 39 50 43 24 38 22 17 6 10 3 0 353 349 345 340 335 339 333 325 315 306 309 325 332 333 329 328 330 329 327 328 328 328 325 323 321 319 316 313 310 307 305 309 308
118 121 130 131 119 105 102 99 98 97 92 86 84 84 85 87 84 81 79 77 78 78 77 76 72 70 70 71 65 65 59 51 48 46 40 36 34 21 355 28 20 32 50 38 36 18 22 24 15 10 4 2 355 350 351 340 332 346 336 320 317 324 318 326 336 326 320 319 323 323 324 326 327 328 325 323 320 317 314 309 308 305 307 306 308
116 125 128 123 113 111 108 104 100 99 96 93 93 91 91 92 86 84 83 81 82 81 79 78 75 73 71 72 73 65 60 52 49 45 44 40 32 20 11 12 54 48 39 42 30 36 11 10 16 11 2 359 356 352 350 343 338 345 332 330 329 328 324 347 331 317 318 317 318 321 321 325 325 325 325 322 319 316 313 311 308 308 306 305 304
118 126 126 122 119 117 112 106 105 102 100 101 101 99 97 96 94 92 92 92 92 89 88 83 79 78 76 75 73 67 59 53 52 48 44 38 37 29 23 23 13 27 20 40 26 26 21 6 7 15 1 359 353 350 343 337 345 342 334 336 335 328 342 346 319 314 310 320 324 322 323 324 324 327 325 323 321 319 317 315 313 310 307 304 302
124 128 123 120 122 118 112 109 105 101 100 102 103 103 102 98 99 100 97 94 91 87 85 85 85 81 77 74 73 72 66 60 53 51 44 39 41 39 35 28 14 20 17 19 29 6 9 9 358 357 358 354 348 344 341 340 347 341 334 334 333 330 346 322 306 306 316 329 329 320 322 323 327 327 326 324 323 320 319 317 316 313 311 307 306
130 129 126 123 121 120 115 113 108 105 107 108 106 104 104 101 103 100 98 101 99 94 88 86 84 80 78 77 75 73 64 60 61 50 43 41 42 40 40 37 25 28 17 11 22 21 353 360 0 347 347 348 345 340 338 335 343 336 333 333 331 341 326 298 309 329 329 332 330 325 322 324 325 322 323 324 323 321 318 317 314 315 312 310 306
138 135 134 131 129 124 122 118 114 111 110 110 111 108 108 108 106 106 107 105 101 98 94 91 87 85 85 83 81 80 75 67 59 56 49 41 39 41 39 39 35 24 10 4 2 24 360 348 348 345 341 341 340 335 335 335 337 333 333 332 336 338 316 334 338 348 348 339 332 327 330 328 319 315 315 321 324 321 317 316 315 312 310 309 307
139 137 135 137 135 132 128 123 119 118 118 116 115 117 115 112 113 109 108 110 106 102 101 93 92 91 89 82 71 69 68 74 64 53 52 48 39 37 37 37 39 22 8 359 357 353 5 347 339 341 345 339 337 337 337 335 334 333 334 332 339 333 337 342 343 350 2 350 336 331 330 324 320 317 315 321 320 318 317 314 310 308 307 304 303
138 139 139 140 138 133 130 128 125 125 124 123 122 121 119 115 110 111 114 111 106 103 103 102 99 95 88 85 80 72 64 59 56 59 51 45 46 43 35 33 33 25 9 359 352 345 351 350 344 342 343 342 337 343 339 337 335 335 333 338 341 336 335 342 346 353 7 349 335 328 324 324 323 323 321 316 312 309 309 307 304 304 301 302 298
143 141 142 138 138 136 131 129 129 130 130 127 128 124 120 119 116 116 117 114 109 105 103 101 100 95 85 82 80 73 64 63 56 52 46 44 42 41 37 28 25 16 11 351 348 340 337 345 346 344 343 347 339 346 346 340 336 334 336 343 343 338 338 339 342 342 354 342 328 324 328 329 328 323 320 316 313 311 311 308 306 301 302 298 295
142 142 139 141 139 136 133 132 132 133 132 129 128 126 124 124 123 121 120 117 114 117 116 110 105 100 93 85 80 76 69 70 65 58 51 45 40 42 32 22 17 4 355 349 337 340 338 339 344 341 347 345 345 345 349 344 335 335 338 344 344 341 338 345 346 341 344 333 331 333 331 330 328 327 325 325 324 322 318 315 311 309 303 302 297
142 140 142 141 139 138 135 133 135 136 133 131 131 130 128 125 127 125 123 121 119 116 112 110 104 97 92 89 80 72 71 67 59 60 50 45 43 31 22 19 11 359 347 338 344 334 334 332 346 345 346 343 346 346 348 343 341 340 342 339 342 342 343 347 348 345 343 342 342 334 333 333 333 334 332 331 332 327 322 320 320 317 313 308 302
141 143 144 141 141 138 139 141 140 138 138 136 132 129 128 129 127 128 125 118 115 108 102 99 96 94 89 78 71 67 62 65 61 54 52 40 35 31 14 15 6 359 345 348 347 344 339 341 341 348 347 348 346 345 349 347 346 343 343 343 342 346 348 347 347 345 342 345 339 337 339 339 340 337 334 337 332 327 324 325 326 324 326 326 323
144 146 145 145 143 142 143 143 142 141 139 135 134 134 132 132 130 126 123 122 118 115 113 105 99 93 87 77 68 63 59 58 54 49 43 36 29 23 16 6 2 354 350 354 352 350 348 347 349 347 352 352 349 350 350 349 345 343 344 344 343 350 351 349 346 344 345 343 343 343 340 342 344 339 341 339 331 327 327 324 323 333 345 340 335
148 148 147 143 144 144 143 142 144 141 138 137 135 135 137 136 133 130 128 125 121 115 110 105 98 93 84 76 68 59 56 53 50 36 25 28 26 22 15 4 1 358 357 359 355 353 355 353 355 354 350 354 352 348 351 349 347 346 346 342 344 348 350 351 347 347 346 345 342 339 341 343 343 341 346 341 335 334 327 323 330 352 347 342 333
151 151 148 145 143 143 142 144 140 139 137 137 139 142 141 138 136 134 131 130 126 122 116 111 107 97 85 76 68 57 53 46 38 36 18 6 4 29 16 8 3 3 2 360 359 358 358 360 359 355 356 351 353 351 346 348 347 351 353 345 342 346 347 351 352 347 349 347 343 344 348 349 345 346 346 340 342 339 335 344 354 351 345 338 330
152 150 147 145 145 143 143 142 141 140 142 140 145 147 144 143 140 139 139 135 133 127 124 117 109 99 87 78 69 67 65 60 44 29 8 340 342 20 19 11 7 5 4 1 3 1 358 0 2 358 354 355 356 351 353 353 352 345 342 345 341 344 346 347 352 357 356 350 345 344 348 349 345 345 347 346 351 350 350 350 352 348 340 334 327
152 151 148 147 145 145 144 144 143 144 143 146 103 116 144 147 147 140 138 140 138 131 122 117 107 101 99 93 94 103 119 114 114 147 263 339 343 354 6 14 7 9 8 5 5 4 356 1 4 358 357 358 356 357 352 347 340 337 342 346 345 344 346 351 351 360 0 354 347 345 347 348 346 344 346 349 351 349 349 351 351 342 336 331 328
153 152 152 148 149 149 149 148 147 148 147 118 89 70 57 126 146 146 146 137 134 133 132 123 117 114 108 105 106 138 150 158 155 165 167 203 222 322 330 350 0 5 9 7 6 3 355 1 0 1 359 354 357 355 354 345 342 340 343 344 346 346 354 356 353 352 2 356 350 344 345 348 350 348 348 353 352 351 351 355 346 339 336 333 330
154 154 154 152 149 151 152 152 152 153 141 115 114 101 88 6 312 153 142 138 136 132 128 125 119 112 106 99 84 74 51 29 351 157 165 154 181 202 227 229 197 294 327 353 351 358 353 355 357 5 358 358 350 358 352 345 341 336 341 343 349 347 349 353 355 352 347 351 354 350 344 352 353 350 350 358 356 354 354 351 344 340 338 335 332
156 158 156 151 152 154 157 157 156 153 140 133 130 133 112 254 311 278 139 139 139 124 120 113 111 111 112 108 100 85 79 267 267 26 4 155 181 203 204 197 218 204 209 231 251 290 327 339 355 356 5 352 351 354 350 342 333 336 337 344 348 348 347 350 351 346 344 353 353 350 346 352 355 354 357 360 356 356 352 351 344 341 342 340 336
160 157 153 153 155 158 161 160 159 154 149 141 145 145 151 213 281 288 132 140 123 124 119 114 111 105 102 108 107 93 76 47 24 342 351 348 357 12 138 146 166 188 205 213 222 228 244 328 349 353 354 355 350 344 342 338 340 340 339 338 345 344 346 346 343 345 342 359 1 349 344 352 358 355 357 355 356 355 354 346 343 344 345 343 340
162 159 157 159 161 161 162 163 162 157 144 142 151 154 168 200 246 275 127 142 136 123 117 106 103 100 98 92 80 90 86 57 30 341 330 335 338 351 341 359 30 18 39 27 15 5 358 348 347 349 345 350 347 335 339 344 337 339 329 335 340 338 332 334 342 351 351 11 7 357 350 349 357 353 352 352 354 350 350 347 348 346 346 342 344
161 160 159 159 159 161 161 160 157 157 139 150 151 164 175 199 235 217 142 148 138 136 131 130 130 120 106 96 97 93 86 62 48 321 308 310 315 5 17 15 30 42 42 116 213 257 281 323 339 337 337 320 302 296 302 315 336 335 327 337 346 340 344 350 354 354 358 9 18 1 350 346 355 354 344 341 343 342 346 350 348 345 346 343 348
165 163 159 157 156 155 152 153 161 165 150 161 160 174 182 201 226 192 154 154 139 144 145 143 138 119 101 55 52 91 90 66 35 318 314 307 330 11 19 16 30 29 23 49 195 215 236 243 252 259 267 275 283 290 281 269 282 310 331 347 354 345 350 351 356 356 0 5 14 1 354 353 356 354 347 339 334 335 351 349 343 345 348 348 353
161 159 156 155 150 143 147 155 161 157 162 167 172 178 188 205 235 185 168 151 146 149 149 168 145 124 77 42 352 12 73 67 17 312 328 314 6 9 10 6 22 21 13 1 355 321 224 238 234 239 249 258 277 288 294 322 304 299 352 352 346 345 350 355 353 353 354 8 14 356 353 359 348 356 351 342 313 326 351 352 349 348 350 350 355
154 152 147 139 139 148 163 159 172 169 168 170 180 180 192 209 233 211 178 151 160 157 159 158 173 144 134 116 57 26 31 66 325 307 342 339 354 17 351 6 14 20 6 343 344 339 339 342 348 344 345 341 345 350 357 346 342 352 354 347 344 347 346 350 352 353 356 5 12 352 353 351 343 355 357 349 345 322 345 353 352 351 352 353 356